Dewpoint
26 26 26 25 25 25 25 25 25 25 25 25 24 23 23 23 22 21 20 20 19 19 19 19 18 17 17 18 17 16 16 16 16 16 16 16 15 15 18 20 19 15 12 11 13 12 11 10 9 9 8 8 8 9 11 13 11 12 11 10 9 9 17
25 25 25 25 24 24 24 23 24 24 24 23 22 22 22 21 21 20 20 19 18 18 18 18 17 16 17 17 16 16 16 16 15 15 14 17 16 16 15 17 17 15 13 10 11 10 11 10 8 9 9 6 6 7 8 9 9 8 9 8 7 8 8
25 24 24 23 23 23 22 22 22 22 22 22 22 21 20 20 20 19 19 18 17 17 17 17 16 15 15 15 15 15 15 15 15 15 16 16 16 15 15 14 15 14 12 10 9 11 10 10 9 7 6 9 7 6 6 8 8 8 8 7 6 5 4
23 23 22 22 22 21 21 21 20 21 21 21 20 19 19 19 19 18 18 17 17 16 16 16 15 15 15 15 14 14 14 14 14 14 15 15 14 15 13 13 13 13 12 11 9 9 9 10 8 7 7 6 5 4 5 6 6 6 6 5 5 5 6
22 22 22 22 21 21 20 20 20 20 19 19 18 18 18 18 17 17 17 16 16 17 16 15 14 14 14 14 13 14 13 13 13 14 14 13 12 12 11 11 12 11 11 9 8 7 7 7 6 5 4 3 1 2 3 3 3 3 3 3 4 4 6
22 22 22 21 20 20 19 19 20 20 19 18 17 17 17 17 16 16 16 16 15 15 15 14 14 14 14 14 13 13 13 13 12 12 12 11 10 10 11 11 10 10 9 8 5 6 6 5 2 2 3 2 2 1 1 1 1 1 2 3 3 3 3
21 21 21 20 20 19 19 18 18 18 17 16 16 16 16 15 15 14 14 15 16 15 15 15 14 14 14 13 13 13 13 13 12 12 11 10 9 8 9 9 8 7 5 3 3 3 3 4 2 3 2 2 2 1 1 -0 1 2 2 4 3 2 2
20 20 20 20 19 19 19 18 18 17 17 16 16 16 15 15 14 14 14 15 15 15 14 14 14 14 13 13 12 12 12 12 11 11 9 9 9 9 9 8 8 6 5 4 3 1 2 2 2 3 2 2 0 -0 1 1 -1 -3 -0 0 -0 -0 -1
19 19 19 18 18 17 17 17 17 16 16 16 16 16 15 14 14 13 13 14 14 14 14 14 13 13 13 13 13 13 13 13 12 10 9 8 9 8 7 6 6 6 6 5 4 4 4 5 4 3 3 2 -0 -2 -1 1 0 -0 -1 1 1 -0 -1
19 19 18 17 17 17 17 16 16 17 17 16 15 15 15 14 14 14 13 13 13 14 14 13 14 14 14 14 14 14 13 13 13 12 11 9 9 8 8 7 7 6 6 7 6 6 6 5 4 3 2 2 2 1 -0 -0 0 0 1 1 2 2 -1
18 18 18 17 17 16 16 16 16 18 17 17 17 15 14 14 14 14 13 13 13 13 13 14 14 14 14 14 14 14 13 14 13 11 11 10 10 10 8 4 5 4 5 4 5 4 5 4 3 3 3 2 2 3 2 3 2 1 -0 -2 -3 -3 1
18 17 17 17 17 16 15 15 17 17 18 18 18 16 15 14 13 13 13 13 13 13 13 13 13 13 13 13 13 13 13 13 13 13 12 12 11 10 10 9 6 5 3 4 4 4 4 4 2 2 1 0 1 1 0 -1 -2 -3 -2 -3 -3 0 -1
17 17 16 16 16 15 15 16 17 18 19 19 18 18 15 14 14 13 13 14 13 13 13 13 13 13 13 14 14 13 13 13 12 12 12 12 11 11 11 11 10 9 6 6 5 5 4 4 2 1 0 0 -1 -1 -5 -5 -4 -5 -3 -2 -2 -0 1
16 16 16 16 15 15 15 16 18 19 20 20 19 18 16 15 15 14 14 14 14 13 13 13 13 12 12 13 13 13 13 13 12 12 11 9 8 8 9 9 10 8 8 7 6 5 4 5 3 2 1 0 0 -4 -4 -4 -4 -0 0 1 1 2 3
15 15 15 15 15 14 15 16 19 20 20 20 20 19 17 15 15 14 14 14 14 14 14 13 13 13 13 12 12 12 12 11 10 9 8 7 6 4 3 4 5 6 5 5 5 6 4 3 3 3 2 1 2 1 2 3 3 4 4 5 6 4 3
15 15 14 14 14 14 15 17 20 21 21 21 21 18 15 15 14 14 14 14 14 14 14 14 13 13 12 11 10 11 11 10 9 8 6 5 3 2 0 -1 1 4 8 4 4 3 3 3 2 6 3 3 3 3 4 4 5 5 5 3 1 -1 -8
14 14 14 14 14 14 15 17 20 21 21 21 20 16 14 14 13 14 13 13 13 13 13 13 13 12 11 10 10 11 11 10 8 6 5 3 2 -0 -2 -2 -5 3 7 8 9 9 9 10 12 13 13 13 12 9 6 1 -3 -3 -4 -6 -7 -8 -10
14 13 14 14 14 15 15 17 20 20 21 21 18 15 14 13 12 13 12 12 12 12 11 12 11 11 10 10 9 11 11 11 8 4 3 1 -1 -4 -4 -5 -6 -4 -2 3 3 3 3 3 3 3 3 3 5 3 2 -9 -7 -10 -12 -10 -12 -10 -15
13 12 13 14 14 15 16 17 19 20 21 20 17 15 13 12 12 11 11 10 10 10 10 10 10 10 9 8 9 11 12 10 6 3 1 0 -2 -5 -7 -4 -6 -4 -5 -6 -5 -5 -5 -4 -1 -4 -7 -5 -1 0 1 -7 -7 -13 -10 -7 -7 -8 -9
12 12 12 13 14 15 16 17 19 19 20 19 17 16 13 12 11 10 10 10 9 8 8 9 9 9 9 8 9 10 10 10 5 1 -1 -2 -3 -6 -7 -6 -7 -6 -5 -6 -5 -5 -7 -5 -7 -9 -11 -11 -10 -8 -5 -6 -7 -9 -7 -6 -5 -5 -6
12 11 11 12 13 14 15 17 18 18 20 18 17 16 14 12 11 11 10 10 9 8 7 6 7 7 8 9 9 9 10 10 8 4 -1 -1 -3 -3 -4 -3 -9 -7 -1 -8 -9 -7 -7 -7 -9 -10 -12 -11 -11 -10 -9 -8 -5 -6 -7 -5 -5 -5 -5
11 10 10 11 12 13 13 13 15 17 17 17 16 15 14 12 12 11 10 9 8 8 7 6 5 5 7 7 8 8 9 10 10 6 1 -1 2 2 2 -2 -6 -9 -6 -8 -7 -8 -7 -7 -9 -11 -12 -13 -12 -11 -9 -10 -11 -9 -8 -7 -5 -4 -6
11 10 10 10 10 10 11 11 12 13 14 15 15 15 14 12 11 12 10 9 7 7 7 5 4 4 6 7 8 8 9 9 9 7 2 4 4 4 3 2 -5 -4 -6 -6 -5 -6 -6 -7 -9 -11 -10 -13 -13 -11 -12 -13 -12 -12 -11 -9 -7 -6 -6
10 9 9 9 9 9 10 10 11 11 12 13 14 13 12 11 10 10 8 8 7 7 5 4 2 2 5 7 7 8 8 7 5 1 5 5 4 4 3 -3 -5 -6 -6 -5 -6 -6 -7 -7 -8 -11 -13 -12 -11 -12 -11 -11 -14 -13 -15 -13 -12 -11 -7
9 9 8 8 8 8 8 8 9 9 9 10 11 12 11 10 10 8 6 4 5 4 3 2 2 3 4 5 5 5 4 2 2 2 1 1 1 1 -7 -8 -10 -10 -12 -10 -7 -7 -8 -8 -7 -7 -8 -10 -13 -11 -13 -13 -14 -15 -14 -15 -16 -15 -12
9 9 9 8 8 8 7 7 7 7 8 8 9 10 10 10 8 6 5 4 2 2 3 3 3 3 3 2 2 0 -1 -3 -4 -2 -1 -1 -1 -10 -10 -10 -11 -12 -11 -8 -8 -9 -9 -8 -10 -11 -9 -11 -13 -14 -11 -14 -15 -15 -12 -15 -15 -15 -11
9 9 9 9 9 8 7 6 6 6 6 6 7 8 8 7 6 5 4 3 1 1 0 1 1 0 0 -0 0 -1 -2 -2 -2 -5 -6 -7 -9 -11 -12 -11 -11 -9 -9 -9 -9 -10 -9 -8 -9 -13 -12 -12 -14 -13 -12 -13 -13 -14 -12 -14 -15 -16 -12
9 9 9 9 9 8 7 6 5 5 4 5 5 5 7 7 5 5 4 3 2 1 -1 -1 0 -1 -3 -3 -4 -5 -7 -7 -8 -8 -9 -12 -14 -13 -12 -9 -6 -6 -11 -11 -12 -11 -12 -11 -12 -11 -10 -13 -15 -12 -12 -14 -14 -15 -13 -14 -14 -18 -14
10 10 11 10 10 8 7 6 5 5 6 4 5 4 4 4 5 5 5 4 1 -2 -3 -3 -3 -4 -4 -5 -5 -6 -6 -7 -10 -11 -12 -13 -14 -16 -16 -15 -14 -12 -10 -11 -14 -11 -10 -10 -13 -11 -14 -12 -14 -13 -13 -16 -17 -15 -15 -15 -15 -12 -12
11 11 12 11 11 10 9 7 7 7 6 5 5 5 5 4 4 4 3 2 1 -1 -3 -3 -3 -3 -4 -5 -6 -5 -6 -6 -8 -9 -11 -12 -10 -13 -15 -15 -15 -13 -12 -14 -13 -12 -14 -13 -14 -13 -14 -14 -14 -13 -15 -15 -12 -17 -17 -17 -14 -14 -13
13 12 11 11 8 8 9 9 8 7 6 6 6 6 5 5 4 3 2 2 -2 -4 -4 -4 -4 -4 -4 -5 -5 -6 -5 -6 -8 -9 -9 -10 -13 -13 -12 -11 -13 -13 -14 -14 -13 -13 -14 -14 -14 -13 -14 -14 -14 -14 -14 -18 -17 -16 -15 -15 -15 -14 -13
12 11 11 10 8 6 5 7 7 7 7 6 6 6 5 4 4 3 2 1 -0 -3 -3 -3 -4 -4 -4 -4 -5 -6 -6 -6 -7 -8 -9 -9 -11 -10 -11 -11 -11 -11 -13 -13 -14 -14 -14 -14 -14 -14 -14 -14 -14 -14 -15 -15 -15 -18 -17 -16 -16 -14 -13
10 10 10 9 9 8 7 6 6 7 8 7 6 6 4 4 3 2 2 1 -1 -2 -3 -3 -3 -3 -2 -3 -4 -4 -5 -6 -7 -7 -8 -8 -9 -9 -9 -9 -10 -10 -12 -13 -13 -13 -14 -13 -13 -13 -14 -14 -14 -14 -15 -14 -15 -15 -16 -16 -14 -13 -14
8 8 8 8 8 8 7 7 7 7 7 6 6 5 4 3 2 2 1 -0 -2 -2 -2 -2 -2 -3 -3 -3 -3 -4 -5 -6 -6 -7 -8 -8 -9 -9 -9 -9 -10 -12 -11 -11 -11 -11 -12 -13 -13 -15 -14 -15 -17 -15 -15 -14 -14 -16 -17 -16 -15 -16 -16
4 5 6 5 5 6 6 6 5 5 5 5 4 4 3 3 1 -1 -1 -1 -1 -1 -2 -2 -2 -3 -3 -3 -4 -4 -5 -6 -6 -7 -8 -8 -8 -9 -9 -10 -11 -11 -11 -11 -11 -12 -13 -12 -13 -13 -13 -14 -14 -17 -16 -16 -16 -16 -15 -15 -16 -17 -17
3 3 4 5 5 5 5 5 4 4 4 4 4 3 2 -1 -1 -1 -1 -2 -1 -2 -2 -2 -2 -3 -3 -3 -4 -5 -6 -6 -6 -7 -7 -7 -8 -9 -10 -10 -11 -11 -11 -11 -11 -12 -12 -12 -13 -13 -14 -15 -15 -16 -15 -15 -16 -16 -16 -16 -17 -17 -16